When you browse on this site, cookies collect data to enhance your experience and personalize the content and advertising you see.
Visit our Privacy Policy to learn more. By continuing to use the site, you agree to this use of cookies and data.
  • In Deutschland
  • Länderverzeichnis
  • Für 7 Tage
  • Wassertemperatur
  • Wetterkarte
  • Widgets
  • user-avatar
    Anmelden

    Stündliche Wetter Kalinovskoe

    Heute, 24 Februar, Montag

    Zeit Temperatur Niederschläge Wind Luftdruck Luftfeuchtigkeit
    00:00 -11°C° 0 mm 4 m/S 757 mmHg 94%
    01:00 -12°C° 0 mm 4 m/S 757 mmHg 93%
    02:00 -12°C° 0 mm 4 m/S 756 mmHg 92%
    03:00 -12°C° 0 mm 4 m/S 756 mmHg 91%
    04:00 -13°C° 0 mm 5 m/S 755 mmHg 91%
    05:00 -14°C° 0 mm 5 m/S 755 mmHg 91%
    06:00 -14°C° 0 mm 5 m/S 754 mmHg 91%
    07:00 -15°C° 0 mm 6 m/S 753 mmHg 91%
    08:00 -14°C° 0 mm 6 m/S 753 mmHg 91%
    09:00 -13°C° 0 mm 7 m/S 753 mmHg 90%
    10:00 -12°C° 0 mm 7 m/S 752 mmHg 90%
    11:00 -12°C° 0 mm 7 m/S 751 mmHg 90%
    12:00 -11°C° 0 mm 8 m/S 751 mmHg 89%
    13:00 -10°C° 0 mm 8 m/S 750 mmHg 89%
    14:00 -10°C° 0.1 mm 8 m/S 750 mmHg 90%
    15:00 -10°C° 0.1 mm 8 m/S 749 mmHg 91%
    16:00 -10°C° 0.1 mm 8 m/S 749 mmHg 91%
    17:00 -9°C° 0.3 mm 7 m/S 749 mmHg 92%
    18:00 -11°C° 0.3 mm 7 m/S 748 mmHg 92%
    19:00 -11°C° 0.3 mm 7 m/S 748 mmHg 92%
    20:00 -11°C° 0.2 mm 7 m/S 748 mmHg 92%
    21:00 -10°C° 0.2 mm 6 m/S 747 mmHg 93%
    22:00 -9°C° 0.2 mm 6 m/S 747 mmHg 93%
    23:00 -9°C° 0.2 mm 6 m/S 747 mmHg 93%

    Morgen, 25 Februar, Dienstag

    Zeit Temperatur Niederschläge Wind Luftdruck Luftfeuchtigkeit
    00:00 -8°C° 0.2 mm 5 m/S 747 mmHg 93%
    01:00 -7°C° 0.2 mm 5 m/S 747 mmHg 93%
    02:00 -8°C° 0 mm 5 m/S 747 mmHg 93%
    03:00 -8°C° 0 mm 4 m/S 748 mmHg 93%
    04:00 -9°C° 0 mm 4 m/S 748 mmHg 93%
    05:00 -8°C° 0 mm 3 m/S 748 mmHg 93%
    06:00 -9°C° 0 mm 3 m/S 748 mmHg 93%
    07:00 -9°C° 0 mm 3 m/S 749 mmHg 93%
    08:00 -8°C° 0 mm 3 m/S 749 mmHg 92%
    09:00 -5°C° 0 mm 2 m/S 749 mmHg 92%
    10:00 -4°C° 0 mm 2 m/S 749 mmHg 91%
    11:00 -4°C° 0 mm 3 m/S 750 mmHg 91%
    12:00 -2°C° 0 mm 3 m/S 750 mmHg 91%
    13:00 -2°C° 0 mm 3 m/S 750 mmHg 91%
    14:00 -2°C° 0 mm 3 m/S 750 mmHg 92%
    15:00 -4°C° 0 mm 3 m/S 749 mmHg 92%
    16:00 -4°C° 0 mm 3 m/S 749 mmHg 93%
    17:00 -4°C° 0 mm 4 m/S 749 mmHg 94%
    18:00 -6°C° 0 mm 5 m/S 749 mmHg 95%
    19:00 -6°C° 0 mm 5 m/S 749 mmHg 96%
    20:00 -6°C° 0 mm 5 m/S 749 mmHg 95%
    21:00 -6°C° 0 mm 5 m/S 748 mmHg 95%
    22:00 -5°C° 0 mm 4 m/S 748 mmHg 94%
    23:00 -6°C° 0.1 mm 5 m/S 747 mmHg 94%

    übermorgen, 26 Februar, Mittwoch

    Zeit Temperatur Niederschläge Wind Luftdruck Luftfeuchtigkeit
    00:00 -5°C° 0.1 mm 5 m/S 747 mmHg 94%
    01:00 -5°C° 0.1 mm 5 m/S 746 mmHg 95%
    02:00 -5°C° 0.1 mm 5 m/S 746 mmHg 94%
    03:00 -5°C° 0.1 mm 5 m/S 745 mmHg 94%
    04:00 -5°C° 0.1 mm 5 m/S 745 mmHg 94%
    05:00 -4°C° 0 mm 5 m/S 744 mmHg 93%
    06:00 -4°C° 0 mm 5 m/S 743 mmHg 93%
    07:00 -4°C° 0 mm 6 m/S 742 mmHg 93%
    08:00 -4°C° 0 mm 6 m/S 741 mmHg 93%
    09:00 -4°C° 0 mm 6 m/S 741 mmHg 94%
    10:00 -4°C° 0 mm 7 m/S 740 mmHg 94%
    11:00 -4°C° 0.4 mm 6 m/S 739 mmHg 95%
    12:00 -4°C° 0.4 mm 6 m/S 738 mmHg 96%
    13:00 -4°C° 0.4 mm 6 m/S 737 mmHg 96%
    14:00 -4°C° 1.4 mm 5 m/S 737 mmHg 96%
    15:00 -3°C° 1.4 mm 4 m/S 736 mmHg 96%
    16:00 -3°C° 1.4 mm 4 m/S 735 mmHg 97%
    17:00 -4°C° 0.3 mm 3 m/S 735 mmHg 97%
    18:00 -3°C° 0.3 mm 2 m/S 735 mmHg 97%
    19:00 -2°C° 0.3 mm 1 m/S 734 mmHg 97%
    20:00 -2°C° 0.1 mm 1 m/S 735 mmHg 97%
    21:00 -4°C° 0.1 mm 2 m/S 735 mmHg 96%
    22:00 -5°C° 0.1 mm 3 m/S 735 mmHg 96%
    23:00 -5°C° 0 mm 3 m/S 735 mmHg 96%

    27 Februar, Donnerstag

    Zeit Temperatur Niederschläge Wind Luftdruck Luftfeuchtigkeit
    00:00 -4°C° 0 mm 3 m/S 736 mmHg 96%
    01:00 -4°C° 0 mm 4 m/S 736 mmHg 95%
    02:00 -4°C° 0.1 mm 5 m/S 737 mmHg 93%
    03:00 -4°C° 0.1 mm 6 m/S 738 mmHg 90%
    04:00 -3°C° 0.1 mm 7 m/S 739 mmHg 88%
    05:00 -4°C° 0 mm 7 m/S 740 mmHg 86%
    06:00 -5°C° 0 mm 6 m/S 741 mmHg 85%
    07:00 -6°C° 0 mm 6 m/S 742 mmHg 84%
    08:00 -6°C° 0 mm 6 m/S 743 mmHg 82%
    09:00 -6°C° 0 mm 6 m/S 743 mmHg 80%
    10:00 -6°C° 0 mm 5 m/S 744 mmHg 79%
    11:00 -5°C° 0 mm 5 m/S 744 mmHg 80%
    12:00 -4°C° 0 mm 5 m/S 745 mmHg 80%
    13:00 -2°C° 0 mm 5 m/S 745 mmHg 81%
    14:00 -2°C° 0 mm 5 m/S 746 mmHg 82%
    15:00 -2°C° 0 mm 5 m/S 746 mmHg 84%
    16:00 -3°C° 0 mm 6 m/S 747 mmHg 85%
    17:00 -2°C° 0 mm 5 m/S 748 mmHg 86%
    18:00 -2°C° 0 mm 4 m/S 748 mmHg 88%
    19:00 -2°C° 0 mm 4 m/S 749 mmHg 89%
    20:00 -2°C° 0 mm 4 m/S 749 mmHg 89%
    21:00 -2°C° 0 mm 4 m/S 750 mmHg 89%
    22:00 -2°C° 0 mm 4 m/S 751 mmHg 90%
    23:00 -3°C° 0 mm 4 m/S 751 mmHg 89%

    28 Februar, Freitag

    Zeit Temperatur Niederschläge Wind Luftdruck Luftfeuchtigkeit
    00:00 -2°C° 0 mm 3 m/S 752 mmHg 89%
    01:00 -4°C° 0 mm 3 m/S 752 mmHg 89%
    02:00 -4°C° 0 mm 3 m/S 753 mmHg 90%
    03:00 -4°C° 0 mm 2 m/S 753 mmHg 92%
    04:00 -4°C° 0 mm 2 m/S 754 mmHg 93%
    05:00 -3°C° 0 mm 2 m/S 754 mmHg 94%
    06:00 -2°C° 0 mm 3 m/S 754 mmHg 94%
    07:00 -1°C° 0 mm 3 m/S 754 mmHg 95%
    08:00 -2°C° 0 mm 4 m/S 754 mmHg 96%
    09:00 -2°C° 0 mm 4 m/S 754 mmHg 96%
    10:00 -2°C° 0 mm 5 m/S 754 mmHg 96%
    11:00 -1°C° 0.2 mm 5 m/S 753 mmHg 97%
    12:00 -1°C° 0.2 mm 5 m/S 753 mmHg 98%
    13:00 -1°C° 0.2 mm 5 m/S 753 mmHg 99%
    14:00 -1°C° 0.1 mm 5 m/S 753 mmHg 99%
    15:00 -1°C° 0.1 mm 5 m/S 753 mmHg 99%
    16:00 0°C° 0.1 mm 5 m/S 754 mmHg 98%
    17:00 0°C° 0 mm 5 m/S 754 mmHg 96%
    18:00 0°C° 0 mm 4 m/S 754 mmHg 94%
    19:00 0°C° 0 mm 4 m/S 754 mmHg 93%
    20:00 -1°C° 0 mm 4 m/S 755 mmHg 92%
    21:00 -1°C° 0 mm 4 m/S 755 mmHg 91%
    22:00 0°C° 0 mm 3 m/S 755 mmHg 90%
    23:00 -2°C° 0 mm 4 m/S 755 mmHg 90%

    29 Februar, Samstag

    Zeit Temperatur Niederschläge Wind Luftdruck Luftfeuchtigkeit
    00:00 -2°C° 0 mm 4 m/S 755 mmHg 89%
    01:00 -3°C° 0 mm 4 m/S 755 mmHg 88%
    02:00 -3°C° 0 mm 4 m/S 755 mmHg 87%
    03:00 -4°C° 0 mm 4 m/S 755 mmHg 86%
    04:00 -5°C° 0 mm 4 m/S 755 mmHg 85%
    05:00 -5°C° 0 mm 4 m/S 755 mmHg 84%
    06:00 -6°C° 0 mm 5 m/S 755 mmHg 83%
    07:00 -6°C° 0 mm 5 m/S 755 mmHg 82%
    08:00 -5°C° 0 mm 6 m/S 755 mmHg 80%
    09:00 -4°C° 0 mm 6 m/S 755 mmHg 79%
    10:00 -3°C° 0 mm 7 m/S 755 mmHg 77%
    11:00 -3°C° 0 mm 7 m/S 755 mmHg 79%
    12:00 -2°C° 0 mm 7 m/S 755 mmHg 82%
    13:00 -2°C° 0 mm 7 m/S 754 mmHg 84%
    14:00 -2°C° 0 mm 7 m/S 754 mmHg 83%
    15:00 -2°C° 0 mm 7 m/S 754 mmHg 83%
    16:00 -2°C° 0 mm 7 m/S 754 mmHg 82%
    17:00 -3°C° 0 mm 7 m/S 754 mmHg 82%
    18:00 -4°C° 0 mm 7 m/S 753 mmHg 83%
    19:00 -4°C° 0 mm 7 m/S 753 mmHg 84%
    20:00 -6°C° 0 mm 7 m/S 753 mmHg 84%
    21:00 -6°C° 0 mm 7 m/S 753 mmHg 84%
    22:00 -6°C° 0 mm 6 m/S 752 mmHg 85%
    23:00 -6°C° 0 mm 6 m/S 752 mmHg 85%
    Mehr zeigen